Location: Broek
(53.2737°N, 5.9967°E)
Time: 22:26:29
(UTC+00:00)

Meteor 1-11 - Pass Details

Date: 10 October 2024
Orbit: 839 x 885 km, 81.2° (Epoch: 09 November)

Event Time Altitude Azimuth Distance (km) Brightness Sun altitude
Rises 19:57:54 0° 347° (NNW) 3,502 8.0 -28.0°
Reaches altitude 10° 20:00:23 10° 350° (N) 2,556 7.1 -28.4°
Enters shadow 20:05:17 60° 22° (NNE) 1,007 4.5 -29.0°
